Location: Bremen
(53.0796°N, 8.8241°E)
Time: 11:07:16
(UTC+01:00)

N. Korean satellite - Visible Passes

Search period start: 24 February 2018 00:00
Search period end: 06 March 2018 00:00
Orbit: 459 x 514 km, 97.2° (Epoch: 23 February)

Date Brightness Start Highest point End Pass type
(mag) Time Alt. Az. Time Alt. Az. Time Alt. Az.
24 Feb 8.8 06:40:16 10° NNE 06:43:38 33° E 06:47:01 10° SSE visible
24 Feb 9.2 18:56:16 10° SSW 18:59:09 24° W 19:02:07 10° NW visible
25 Feb 9.9 06:16:58 10° NE 06:19:43 19° E 06:22:29 10° SE visible
25 Feb 8.0 18:31:55 10° S 18:35:16 43° W 18:38:41 10° NNW visible
26 Feb 10.5 05:54:22 10° ENE 05:55:43 12° E 05:57:06 10° ESE visible
27 Feb 10.0 19:19:29 10° SW 19:21:34 15° W 19:23:41 10° NW visible
28 Feb 9.2 18:54:37 10° SSW 18:57:36 25° W 19:00:38 10° NW visible
01 Mar 10.0 06:15:26 10° NE 06:18:11 19° E 06:20:56 10° SE visible
02 Mar 10.6 05:52:52 10° ENE 05:54:10 11° E 05:55:28 10° ESE visible
03 Mar 10.0 19:17:46 10° SW 19:19:58 16° W 19:22:13 10° NW visible
04 Mar 9.2 18:52:57 10° SSW 18:55:59 26° W 18:59:06 10° NW visible
05 Mar 10.0 06:13:52 10° NE 06:16:35 19° E 06:19:19 10° SE visible
